When you browse on this site, cookies collect data to enhance your experience and personalize the content and advertising you see.
Visit our Privacy Policy to learn more. By continuing to use the site, you agree to this use of cookies and data.
  • In Romania
  • List of Countries
  • For 7 days
  • Water Temperature
  • Satellite Maps
  • Weather Map
  • Weather Widgets
  • user-avatar
    Login

    Hourly Weather San Antonio

    Today, 23 February, Saturday

    Time Temperature Precipitation Wind Pressure Humidity
    00:00 +17°C° 0.1 mm 3 mps 739 mmHg 95%
    01:00 +18°C° 0.1 mm 3 mps 739 mmHg 97%
    02:00 +18°C° 0.1 mm 3 mps 739 mmHg 98%
    03:00 +19°C° 0.1 mm 3 mps 739 mmHg 97%
    04:00 +19°C° 0.1 mm 3 mps 740 mmHg 97%
    05:00 +19°C° 0.1 mm 3 mps 740 mmHg 96%
    06:00 +19°C° 0 mm 5 mps 741 mmHg 77%
    07:00 +17°C° 0 mm 6 mps 742 mmHg 57%
    08:00 +17°C° 0 mm 8 mps 743 mmHg 38%
    09:00 +18°C° 0 mm 8 mps 744 mmHg 31%
    10:00 +20°C° 0 mm 8 mps 744 mmHg 25%
    11:00 +21°C° 0 mm 9 mps 744 mmHg 18%
    12:00 +22°C° 0 mm 8 mps 744 mmHg 18%
    13:00 +22°C° 0 mm 8 mps 744 mmHg 17%
    14:00 +23°C° 0 mm 8 mps 743 mmHg 16%
    15:00 +22°C° 0 mm 7 mps 743 mmHg 18%
    16:00 +21°C° 0 mm 5 mps 744 mmHg 20%
    17:00 +20°C° 0 mm 4 mps 744 mmHg 22%
    18:00 +19°C° 0 mm 4 mps 744 mmHg 21%
    19:00 +18°C° 0 mm 3 mps 745 mmHg 20%
    20:00 +17°C° 0 mm 3 mps 745 mmHg 20%
    21:00 +17°C° 0 mm 4 mps 746 mmHg 19%
    22:00 +15°C° 0 mm 4 mps 747 mmHg 18%
    23:00 +14°C° 0 mm 4 mps 747 mmHg 17%

    Tomorrow, 24 February, Sunday

    Time Temperature Precipitation Wind Pressure Humidity
    00:00 +14°C° 0 mm 4 mps 747 mmHg 18%
    01:00 +13°C° 0 mm 5 mps 748 mmHg 20%
    02:00 +13°C° 0 mm 5 mps 748 mmHg 21%
    03:00 +12°C° 0 mm 4 mps 749 mmHg 27%
    04:00 +11°C° 0 mm 4 mps 749 mmHg 33%
    05:00 +10°C° 0 mm 4 mps 750 mmHg 38%
    06:00 +11°C° 0 mm 4 mps 751 mmHg 38%
    07:00 +11°C° 0 mm 4 mps 751 mmHg 38%
    08:00 +12°C° 0 mm 5 mps 752 mmHg 37%
    09:00 +13°C° 0 mm 5 mps 752 mmHg 34%
    10:00 +15°C° 0 mm 5 mps 752 mmHg 30%
    11:00 +17°C° 0 mm 5 mps 753 mmHg 27%
    12:00 +17°C° 0 mm 5 mps 752 mmHg 27%
    13:00 +19°C° 0 mm 5 mps 751 mmHg 26%
    14:00 +20°C° 0 mm 5 mps 750 mmHg 26%
    15:00 +19°C° 0 mm 4 mps 750 mmHg 31%
    16:00 +18°C° 0 mm 4 mps 750 mmHg 35%
    17:00 +17°C° 0 mm 4 mps 750 mmHg 40%
    18:00 +15°C° 0 mm 4 mps 750 mmHg 43%
    19:00 +13°C° 0 mm 4 mps 750 mmHg 46%
    20:00 +12°C° 0 mm 4 mps 751 mmHg 48%
    21:00 +12°C° 0 mm 3 mps 751 mmHg 50%
    22:00 +11°C° 0 mm 3 mps 751 mmHg 51%
    23:00 +10°C° 0 mm 3 mps 751 mmHg 52%

    Day after tomorrow, 25 February, Monday

    Time Temperature Precipitation Wind Pressure Humidity
    00:00 +10°C° 0 mm 3 mps 751 mmHg 53%
    01:00 +10°C° 0 mm 3 mps 751 mmHg 53%
    02:00 +9°C° 0 mm 3 mps 750 mmHg 54%
    03:00 +9°C° 0 mm 3 mps 750 mmHg 55%
    04:00 +8°C° 0 mm 4 mps 750 mmHg 56%
    05:00 +7°C° 0 mm 4 mps 750 mmHg 58%
    06:00 +8°C° 0 mm 4 mps 751 mmHg 57%
    07:00 +10°C° 0 mm 4 mps 751 mmHg 56%
    08:00 +9°C° 0 mm 5 mps 752 mmHg 55%
    09:00 +12°C° 0 mm 5 mps 751 mmHg 53%
    10:00 +14°C° 0 mm 5 mps 751 mmHg 51%
    11:00 +16°C° 0 mm 5 mps 751 mmHg 49%
    12:00 +17°C° 0 mm 5 mps 750 mmHg 49%
    13:00 +19°C° 0 mm 5 mps 749 mmHg 48%
    14:00 +20°C° 0 mm 5 mps 748 mmHg 47%
    15:00 +19°C° 0 mm 5 mps 747 mmHg 54%
    16:00 +19°C° 0 mm 5 mps 747 mmHg 61%
    17:00 +17°C° 0 mm 5 mps 747 mmHg 68%
    18:00 +17°C° 0 mm 4 mps 747 mmHg 71%
    19:00 +15°C° 0 mm 4 mps 748 mmHg 74%
    20:00 +16°C° 0 mm 3 mps 748 mmHg 77%
    21:00 +15°C° 0 mm 4 mps 748 mmHg 81%
    22:00 +14°C° 0 mm 4 mps 748 mmHg 86%
    23:00 +14°C° 0 mm 4 mps 748 mmHg 90%

    26 February, Tuesday

    Time Temperature Precipitation Wind Pressure Humidity
    00:00 +14°C° 0 mm 3 mps 747 mmHg 91%
    01:00 +14°C° 0 mm 3 mps 747 mmHg 91%
    02:00 +14°C° 0 mm 3 mps 746 mmHg 92%
    03:00 +15°C° 0.1 mm 2 mps 746 mmHg 93%
    04:00 +15°C° 0.1 mm 2 mps 746 mmHg 94%
    05:00 +15°C° 0.1 mm 2 mps 746 mmHg 94%
    06:00 +16°C° 0.1 mm 2 mps 747 mmHg 94%
    07:00 +16°C° 0.1 mm 2 mps 747 mmHg 93%
    08:00 +16°C° 0.1 mm 2 mps 747 mmHg 93%
    09:00 +18°C° 0 mm 2 mps 747 mmHg 88%
    10:00 +19°C° 0 mm 2 mps 747 mmHg 84%
    11:00 +20°C° 0 mm 3 mps 747 mmHg 80%
    12:00 +21°C° 0 mm 3 mps 746 mmHg 78%
    13:00 +22°C° 0 mm 3 mps 745 mmHg 77%
    14:00 +22°C° 0 mm 3 mps 745 mmHg 76%
    15:00 +22°C° 0 mm 3 mps 744 mmHg 79%
    16:00 +22°C° 0 mm 3 mps 744 mmHg 82%
    17:00 +21°C° 0 mm 3 mps 744 mmHg 85%
    18:00 +21°C° 0.1 mm 3 mps 745 mmHg 89%
    19:00 +20°C° 0.1 mm 3 mps 745 mmHg 93%
    20:00 +19°C° 0.1 mm 3 mps 745 mmHg 97%
    21:00 +19°C° 0.1 mm 3 mps 745 mmHg 97%
    22:00 +19°C° 0.1 mm 2 mps 745 mmHg 97%
    23:00 +19°C° 0.1 mm 2 mps 745 mmHg 98%

    27 February, Wednesday

    Time Temperature Precipitation Wind Pressure Humidity
    00:00 +19°C° 0 mm 2 mps 745 mmHg 98%
    01:00 +19°C° 0 mm 2 mps 744 mmHg 98%
    02:00 +19°C° 0 mm 2 mps 744 mmHg 98%
    03:00 +19°C° 0 mm 2 mps 744 mmHg 98%
    04:00 +19°C° 0 mm 2 mps 744 mmHg 98%
    05:00 +20°C° 0 mm 1 mps 745 mmHg 98%
    06:00 +20°C° 0 mm 1 mps 745 mmHg 95%
    07:00 +21°C° 0 mm 1 mps 746 mmHg 92%
    08:00 +21°C° 0 mm 1 mps 746 mmHg 90%
    09:00 +22°C° 0 mm 1 mps 746 mmHg 87%
    10:00 +22°C° 0 mm 1 mps 746 mmHg 84%
    11:00 +23°C° 0 mm 1 mps 745 mmHg 82%
    12:00 +24°C° 0 mm 1 mps 745 mmHg 75%
    13:00 +26°C° 0 mm 1 mps 744 mmHg 68%
    14:00 +27°C° 0 mm 2 mps 743 mmHg 61%
    15:00 +27°C° 0 mm 2 mps 743 mmHg 63%
    16:00 +27°C° 0 mm 2 mps 742 mmHg 64%
    17:00 +26°C° 0 mm 2 mps 742 mmHg 65%
    18:00 +25°C° 0 mm 2 mps 743 mmHg 70%
    19:00 +24°C° 0 mm 2 mps 743 mmHg 74%
    20:00 +21°C° 0 mm 2 mps 743 mmHg 79%
    21:00 +21°C° 0 mm 2 mps 743 mmHg 82%
    22:00 +21°C° 0 mm 2 mps 743 mmHg 86%
    23:00 +20°C° 0 mm 2 mps 743 mmHg 89%

    28 February, Thursday

    Time Temperature Precipitation Wind Pressure Humidity
    00:00 +20°C° 0 mm 2 mps 743 mmHg 88%
    01:00 +20°C° 0 mm 2 mps 743 mmHg 86%
    02:00 +20°C° 0 mm 3 mps 743 mmHg 85%
    03:00 +19°C° 0 mm 3 mps 743 mmHg 79%
    04:00 +19°C° 0 mm 4 mps 743 mmHg 73%
    05:00 +18°C° 0 mm 4 mps 743 mmHg 66%
    06:00 +18°C° 0 mm 4 mps 744 mmHg 66%
    07:00 +18°C° 0 mm 3 mps 744 mmHg 65%
    08:00 +18°C° 0 mm 3 mps 744 mmHg 64%
    09:00 +19°C° 0 mm 3 mps 744 mmHg 64%
    10:00 +21°C° 0 mm 3 mps 744 mmHg 64%
    11:00 +22°C° 0 mm 3 mps 744 mmHg 63%
    12:00 +24°C° 0 mm 3 mps 743 mmHg 62%
    13:00 +25°C° 0 mm 3 mps 742 mmHg 61%
    14:00 +26°C° 0 mm 3 mps 742 mmHg 60%
    15:00 +25°C° 0 mm 3 mps 741 mmHg 63%
    16:00 +25°C° 0 mm 3 mps 741 mmHg 66%
    17:00 +24°C° 0 mm 3 mps 741 mmHg 69%
    18:00 +22°C° 0.2 mm 3 mps 741 mmHg 74%
    19:00 +21°C° 0.2 mm 3 mps 742 mmHg 79%
    20:00 +20°C° 0.2 mm 3 mps 742 mmHg 84%
    21:00 +20°C° 0.1 mm 3 mps 742 mmHg 85%
    22:00 +20°C° 0.1 mm 3 mps 741 mmHg 86%
    23:00 +19°C° 0.1 mm 2 mps 741 mmHg 87%
    Show more